Location: Unspecified
(42.3650°N, 71.1030°W)
Time: 22:46:58
(UTC+00:00)

Courier 1B - All Passes

Search period start: 25 June 2024 00:00
Search period end: 05 July 2024 00:00
Orbit: 962 x 1208 km, 28.3° (Epoch: 25 June)

Date Brightness Start Highest point End Pass type
(mag) Time Alt. Az. Time Alt. Az. Time Alt. Az.
25 Jun - 04:10:30 10° SSW 04:15:20 20° SSE 04:20:23 10° ESE visible
25 Jun - 06:02:47 10° SW 06:08:29 26° S 06:14:27 10° SE visible
25 Jun - 07:56:33 10° WSW 08:01:44 21° SSW 08:07:06 10° SSE visible
26 Jun - 03:17:35 10° SSW 03:21:46 17° SSE 03:26:04 10° ESE night (unlit)
26 Jun - 05:09:18 10° SW 05:14:48 25° S 05:20:35 10° ESE visible
26 Jun - 07:02:39 10° WSW 07:08:02 23° S 07:13:38 10° SE visible
26 Jun - 08:58:26 10° SW 09:01:09 12° SSW 09:03:55 10° S daylight
27 Jun - 02:25:03 10° S 02:28:13 14° SSE 02:31:27 10° SE visible
27 Jun - 04:15:56 10° SW 04:21:10 24° S 04:26:38 10° ESE night (unlit)
27 Jun - 06:08:54 10° WSW 06:14:21 24° S 06:20:03 10° SE visible
27 Jun - 08:03:38 10° SW 08:07:30 15° SSW 08:11:28 10° SSE visible
28 Jun - 01:33:42 10° SSE 01:34:43 10° SSE 01:35:45 10° SE visible
28 Jun - 03:22:42 10° SW 03:27:34 21° SSE 03:32:36 10° ESE visible
28 Jun - 05:15:17 10° SW 05:20:41 25° S 05:26:21 10° SE visible
28 Jun - 07:09:22 10° WSW 07:13:51 18° SSW 07:18:29 10° SSE visible
29 Jun - 02:29:38 10° SSW 02:34:00 19° SSE 02:38:28 10° ESE visible
29 Jun - 04:21:45 10° SW 04:27:02 25° S 04:32:34 10° SE night (unlit)
29 Jun - 06:15:22 10° WSW 06:20:12 20° SSW 06:25:12 10° SSE visible
30 Jun - 01:36:49 10° SSW 01:40:28 16° SSE 01:44:11 10° SE visible
30 Jun - 03:28:19 10° SW 03:33:26 24° S 03:38:44 10° SE visible
30 Jun - 05:21:33 10° WSW 05:26:34 22° S 05:31:46 10° SE night (unlit)
30 Jun - 07:17:14 10° SW 07:19:37 12° SSW 07:22:00 10° S visible
01 Jul - 00:44:26 10° S 00:46:58 12° SSE 00:49:30 10° SE daylight
01 Jul - 02:35:00 10° SW 02:39:51 22° S 02:44:51 10° ESE visible
01 Jul - 04:27:52 10° SW 04:32:56 23° S 04:38:12 10° SE visible
01 Jul - 06:22:30 10° SW 06:26:00 14° SSW 06:29:36 10° S night (unlit)
02 Jul - 01:41:46 10° SSW 01:46:18 20° SSE 01:50:54 10° ESE visible
02 Jul - 03:34:16 10° SW 03:39:20 24° S 03:44:34 10° SE visible
02 Jul - 05:28:18 10° SW 05:32:24 17° SSW 05:36:39 10° SSE night (unlit)
03 Jul - 00:48:42 10° SSW 00:52:46 17° SSE 00:56:51 10° SE visible
03 Jul - 02:40:45 10° SW 02:45:44 23° S 02:50:53 10° SE visible
03 Jul - 04:34:20 10° SW 04:38:49 19° SSW 04:43:26 10° SSE visible
03 Jul - 23:55:53 10° SSW 23:59:14 15° SSE 00:02:36 10° SE daylight
04 Jul - 01:47:18 10° SW 01:52:11 23° S 01:57:08 10° SE visible
04 Jul - 03:40:32 10° SW 03:45:14 21° S 03:50:04 10° SE visible
04 Jul - 05:36:19 10° SW 05:38:12 11° SSW 05:40:06 10° S night (unlit)
04 Jul - 23:03:33 10° S 23:05:44 12° SSE 23:07:55 10° SE daylight
